�������l�o���
Date,Time,MP-1(��Sv/h),MP-2(��Sv/h),MP-3(��Sv/h),MP-4(��Sv/h),MP-5(��Sv/h),MP-6(��Sv/h),MP-7(��Sv/h),MP-8(��Sv/h),����,����(m/s),���J
2023/12/10,00:00,0.515,0.782,0.486,0.977,0.700,0.313,0.563,0.526,���k��,6.0,��
2023/12/10,00:10,0.514,0.781,0.485,0.977,0.699,0.313,0.561,0.526,��,5.0,��
2023/12/10,00:20,0.514,0.781,0.485,0.976,0.700,0.313,0.563,0.525,���k��,3.1,��
2023/12/10,00:30,0.515,0.780,0.485,0.977,0.700,0.314,0.564,0.527,���k��,3.5,��
2023/12/10,00:40,0.513,0.782,0.487,0.977,0.701,0.314,0.563,0.527,���k��,3.4,��
2023/12/10,00:50,0.514,0.780,0.486,0.978,0.701,0.315,0.562,0.526,��,4.9,��
2023/12/10,01:00,0.514,0.781,0.485,0.977,0.699,0.314,0.564,0.527,��,4.6,��
2023/12/10,01:10,0.513,0.782,0.484,0.975,0.700,0.314,0.562,0.526,��,4.5,��
2023/12/10,01:20,0.514,0.779,0.485,0.974,0.701,0.315,0.564,0.526,���쐼,5.2,��
2023/12/10,01:30,0.513,0.781,0.486,0.976,0.700,0.314,0.564,0.526,���쐼,6.1,��
2023/12/10,01:40,0.514,0.781,0.485,0.977,0.698,0.315,0.562,0.525,�쐼,4.4,��
2023/12/10,01:50,0.515,0.781,0.487,0.977,0.700,0.314,0.563,0.526,�쐼,3.7,��
2023/12/10,02:00,0.514,0.781,0.486,0.977,0.699,0.314,0.563,0.525,���쐼,4.4,��
2023/12/10,02:10,0.513,0.780,0.487,0.976,0.701,0.315,0.563,0.526,���쐼,5.0,��
2023/12/10,02:20,0.514,0.781,0.486,0.977,0.699,0.315,0.564,0.525,���쐼,4.2,��
2023/12/10,02:30,0.515,0.780,0.486,0.976,0.700,0.313,0.563,0.526,���쐼,4.0,��
2023/12/10,02:40,0.513,0.782,0.485,0.974,0.700,0.314,0.562,0.526,���쐼,2.9,��
2023/12/10,02:50,0.514,0.781,0.485,0.978,0.698,0.314,0.563,0.526,�쐼,1.7,��
2023/12/10,03:00,0.515,0.780,0.486,0.978,0.700,0.314,0.562,0.526,��쐼,2.3,��
2023/12/10,03:10,0.515,0.780,0.485,0.975,0.699,0.314,0.563,0.526,�쐼,3.7,��
2023/12/10,03:20,0.515,0.779,0.485,0.974,0.699,0.315,0.563,0.527,�쐼,3.6,��
2023/12/10,03:30,0.515,0.780,0.486,0.977,0.700,0.315,0.563,0.525,�쐼,3.8,��
2023/12/10,03:40,0.515,0.782,0.485,0.976,0.700,0.314,0.564,0.525,�쐼,4.2,��
2023/12/10,03:50,0.513,0.780,0.486,0.975,0.699,0.314,0.564,0.526,��,4.9,��
2023/12/10,04:00,0.515,0.780,0.487,0.978,0.699,0.314,0.563,0.526,���쐼,3.7,��
2023/12/10,04:10,0.515,0.780,0.486,0.975,0.702,0.313,0.563,0.527,�쐼,2.6,��
2023/12/10,04:20,0.513,0.779,0.487,0.978,0.700,0.313,0.562,0.526,�쐼,3.0,��
2023/12/10,04:30,0.515,0.779,0.486,0.976,0.700,0.313,0.563,0.527,��,3.6,��
2023/12/10,04:40,0.515,0.782,0.487,0.976,0.700,0.314,0.564,0.525,���쐼,3.4,��
2023/12/10,04:50,0.512,0.782,0.486,0.976,0.699,0.314,0.565,0.528,��,1.6,��
2023/12/10,05:00,0.514,0.781,0.485,0.975,0.701,0.314,0.563,0.526,���쐼,0.8,��
2023/12/10,05:10,0.514,0.781,0.486,0.979,0.700,0.313,0.564,0.526,�쓌,0.8,��
2023/12/10,05:20,0.514,0.781,0.484,0.977,0.700,0.314,0.566,0.527,��,1.7,��
2023/12/10,05:30,0.512,0.779,0.486,0.977,0.700,0.314,0.565,0.528,��쐼,1.9,��
2023/12/10,05:40,0.515,0.779,0.484,0.975,0.699,0.315,0.563,0.528,��쐼,2.0,��
2023/12/10,05:50,0.514,0.782,0.486,0.976,0.703,0.314,0.563,0.526,��쐼,2.3,��
2023/12/10,06:00,0.512,0.782,0.485,0.977,0.698,0.314,0.563,0.526,��쐼,3.2,��
2023/12/10,06:10,0.514,0.780,0.486,0.977,0.699,0.314,0.564,0.527,�쐼,1.2,��
2023/12/10,06:20,0.512,0.783,0.485,0.976,0.701,0.315,0.562,0.526,���k��,2.6,��
2023/12/10,06:30,0.514,0.780,0.484,0.978,0.700,0.314,0.562,0.527,��,2.9,��
2023/12/10,06:40,0.515,0.782,0.485,0.975,0.698,0.313,0.561,0.525,��,3.4,��
2023/12/10,06:50,0.515,0.780,0.485,0.977,0.699,0.313,0.563,0.525,��,4.7,��
2023/12/10,07:00,0.514,0.781,0.485,0.977,0.699,0.314,0.563,0.527,��,6.6,��
2023/12/10,07:10,0.513,0.780,0.486,0.975,0.699,0.313,0.563,0.527,��,5.8,��
2023/12/10,07:20,0.513,0.780,0.485,0.977,0.698,0.313,0.565,0.526,��,5.7,��
2023/12/10,07:30,0.516,0.781,0.486,0.978,0.698,0.314,0.563,0.526,��,5.1,��
2023/12/10,07:40,0.514,0.780,0.486,0.976,0.702,0.314,0.565,0.526,��,5.4,��
2023/12/10,07:50,0.514,0.781,0.486,0.977,0.702,0.314,0.564,0.525,��,4.6,��
2023/12/10,08:00,0.512,0.782,0.487,0.976,0.700,0.314,0.564,0.527,��,5.9,��
2023/12/10,08:10,0.514,0.781,0.485,0.977,0.699,0.314,0.564,0.526,��,6.9,��
2023/12/10,08:20,0.514,0.782,0.487,0.976,0.699,0.315,0.565,0.529,��,6.4,��
2023/12/10,08:30,0.516,0.782,0.486,0.977,0.702,0.315,0.565,0.528,���쐼,6.0,��
2023/12/10,08:40,0.516,0.783,0.485,0.977,0.701,0.314,0.565,0.528,��,6.2,��
2023/12/10,08:50,0.514,0.782,0.486,0.976,0.702,0.314,0.564,0.527,��,7.0,��
2023/12/10,09:00,0.515,0.780,0.486,0.979,0.700,0.314,0.564,0.526,��,6.9,��
2023/12/10,09:10,0.517,0.782,0.486,0.979,0.701,0.314,0.564,0.525,��,6.9,��
2023/12/10,09:20,0.515,0.783,0.487,0.981,0.701,0.314,0.563,0.528,��,8.9,��
2023/12/10,09:30,0.514,0.779,0.486,0.980,0.700,0.314,0.563,0.526,���쐼,7.6,��
2023/12/10,09:40,0.513,0.779,0.488,0.979,0.699,0.314,0.564,0.528,���쐼,6.6,��
2023/12/10,09:50,0.515,0.779,0.488,0.980,0.702,0.313,0.562,0.527,��,7.8,��
2023/12/10,10:00,0.513,0.780,0.487,0.978,0.702,0.315,0.562,0.527,��,7.2,��
2023/12/10,10:10,0.513,0.779,0.488,0.977,0.700,0.314,0.561,0.527,��,6.2,��
2023/12/10,10:20,0.513,0.781,0.486,0.978,0.699,0.313,0.565,0.528,��,4.8,��
2023/12/10,10:30,0.515,0.780,0.486,0.979,0.699,0.314,0.565,0.528,��,5.1,��
2023/12/10,10:40,0.513,0.780,0.486,0.979,0.700,0.313,0.565,0.528,��,5.4,��
2023/12/10,10:50,0.515,0.780,0.486,0.982,0.699,0.314,0.565,0.528,��,3.9,��
2023/12/10,11:00,0.515,0.781,0.485,0.981,0.700,0.313,0.564,0.528,��,3.9,��
2023/12/10,11:10,0.514,0.782,0.485,0.982,0.700,0.313,0.565,0.527,��,4.5,��
2023/12/10,11:20,0.515,0.779,0.485,0.980,0.700,0.314,0.564,0.528,���쐼,3.6,��
2023/12/10,11:30,0.515,0.781,0.486,0.983,0.703,0.314,0.565,0.527,��,5.4,��
2023/12/10,11:40,0.515,0.782,0.485,0.980,0.701,0.314,0.565,0.526,��,6.6,��
2023/12/10,11:50,0.515,0.782,0.485,0.982,0.701,0.314,0.565,0.528,��,6.9,��
2023/12/10,12:00,0.514,0.781,0.488,0.980,0.702,0.314,0.564,0.528,��,6.8,��
2023/12/10,12:10,0.515,0.782,0.487,0.982,0.702,0.313,0.564,0.525,��,6.0,��
2023/12/10,12:20,0.515,0.784,0.485,0.981,0.700,0.314,0.565,0.526,��,5.1,��
2023/12/10,12:30,0.515,0.782,0.486,0.980,0.701,0.312,0.564,0.527,��,5.9,��
2023/12/10,12:40,0.516,0.783,0.487,0.983,0.702,0.314,0.564,0.527,��,6.4,��
2023/12/10,12:50,0.515,0.780,0.487,0.982,0.703,0.315,0.566,0.526,���k��,4.2,��
2023/12/10,13:00,0.516,0.781,0.486,0.982,0.701,0.315,0.565,0.527,��,5.9,��
2023/12/10,13:10,0.515,0.782,0.487,0.981,0.702,0.314,0.565,0.527,��,8.7,��
2023/12/10,13:20,0.519,0.784,0.486,0.984,0.702,0.312,0.566,0.525,���k��,9.6,��
2023/12/10,13:30,0.516,0.783,0.486,0.988,0.703,0.314,0.566,0.527,��,8.4,��
2023/12/10,13:40,0.516,0.782,0.488,0.984,0.703,0.314,0.565,0.526,���쐼,6.1,��
2023/12/10,13:50,0.516,0.781,0.486,0.983,0.702,0.314,0.566,0.528,��,5.6,��
2023/12/10,14:00,0.517,0.782,0.488,0.983,0.702,0.314,0.566,0.528,��,6.3,��
2023/12/10,14:10,0.517,0.782,0.487,0.982,0.702,0.314,0.565,0.527,��,4.2,��
2023/12/10,14:20,0.518,0.781,0.486,0.983,0.702,0.314,0.565,0.526,�k��,5.9,��
2023/12/10,14:30,0.517,0.783,0.488,0.982,0.700,0.315,0.565,0.526,�k�k��,5.2,��
2023/12/10,14:40,0.515,0.783,0.488,0.986,0.703,0.314,0.564,0.528,�k�k��,3.8,��
2023/12/10,14:50,0.517,0.782,0.487,0.984,0.702,0.314,0.565,0.527,�k�k��,5.8,��
2023/12/10,15:00,0.515,0.782,0.487,0.985,0.702,0.314,0.564,0.526,�k,6.6,��
2023/12/10,15:10,0.516,0.782,0.487,0.984,0.701,0.314,0.565,0.528,�k,6.8,��
2023/12/10,15:20,0.516,0.782,0.487,0.983,0.702,0.314,0.564,0.528,�k,7.4,��
2023/12/10,15:30,0.517,0.783,0.486,0.982,0.701,0.314,0.566,0.528,�k,7.4,��
2023/12/10,15:40,0.517,0.782,0.486,0.980,0.702,0.314,0.564,0.528,�k,6.6,��
2023/12/10,15:50,0.515,0.782,0.484,0.981,0.703,0.314,0.565,0.530,�k,6.0,��
2023/12/10,16:00,0.514,0.784,0.485,0.983,0.701,0.314,0.563,0.528,�k�k��,4.6,��
2023/12/10,16:10,0.513,0.783,0.486,0.983,0.702,0.314,0.564,0.529,�k,6.0,��
2023/12/10,16:20,0.515,0.785,0.486,0.984,0.702,0.314,0.565,0.531,�k,6.1,��
2023/12/10,16:30,0.517,0.786,0.488,0.984,0.702,0.313,0.564,0.529,�k,4.9,��
2023/12/10,16:40,0.519,0.786,0.488,0.983,0.703,0.316,0.566,0.531,�k,5.2,��
2023/12/10,16:50,0.518,0.786,0.487,0.983,0.703,0.315,0.563,0.530,�k�k��,5.7,��
2023/12/10,17:00,0.517,0.784,0.488,0.984,0.704,0.315,0.563,0.528,�k,5.3,��
2023/12/10,17:10,0.518,0.787,0.487,0.983,0.705,0.314,0.564,0.530,�k,4.8,��
2023/12/10,17:20,0.517,0.786,0.487,0.982,0.705,0.315,0.565,0.529,�k,5.4,��
2023/12/10,17:30,0.518,0.786,0.486,0.983,0.703,0.315,0.565,0.530,�k,5.2,��
2023/12/10,17:40,0.517,0.786,0.488,0.983,0.703,0.315,0.564,0.529,�k,4.6,��
2023/12/10,17:50,0.516,0.785,0.486,0.983,0.704,0.314,0.565,0.528,�k�k��,3.9,��
2023/12/10,18:00,0.517,0.786,0.488,0.982,0.705,0.314,0.565,0.528,�k�k��,3.5,��
2023/12/10,18:10,0.517,0.784,0.487,0.982,0.704,0.313,0.563,0.529,�k�k��,3.6,��
2023/12/10,18:20,0.516,0.785,0.487,0.984,0.704,0.315,0.564,0.528,�k�k��,3.5,��
2023/12/10,18:30,0.516,0.786,0.487,0.983,0.705,0.314,0.566,0.528,�k,2.8,��
2023/12/10,18:40,0.515,0.787,0.487,0.983,0.703,0.315,0.565,0.529,�k,2.2,��
2023/12/10,18:50,0.516,0.784,0.486,0.983,0.703,0.314,0.565,0.527,�k�k��,2.3,��
2023/12/10,19:00,0.516,0.785,0.487,0.985,0.705,0.315,0.565,0.529,�k��,3.0,��
2023/12/10,19:10,0.517,0.785,0.488,0.983,0.704,0.314,0.564,0.528,�k��,2.8,��
2023/12/10,19:20,0.517,0.786,0.487,0.984,0.705,0.313,0.564,0.528,�k��,3.3,��
2023/12/10,19:30,0.518,0.786,0.486,0.983,0.705,0.313,0.564,0.528,�k��,3.8,��
2023/12/10,19:40,0.517,0.786,0.488,0.984,0.704,0.315,0.565,0.528,�k��,4.6,��
2023/12/10,19:50,0.518,0.785,0.487,0.983,0.704,0.315,0.563,0.526,�k�k��,4.4,��
2023/12/10,20:00,0.516,0.785,0.488,0.983,0.704,0.314,0.563,0.527,�k�k��,4.2,��
2023/12/10,20:10,0.517,0.786,0.487,0.982,0.705,0.314,0.563,0.528,�k�k��,4.5,��
2023/12/10,20:20,0.518,0.786,0.487,0.984,0.704,0.315,0.564,0.526,�k��,3.9,��
2023/12/10,20:30,0.517,0.785,0.488,0.984,0.705,0.314,0.564,0.528,�k�k��,3.8,��
2023/12/10,20:40,0.517,0.786,0.488,0.984,0.704,0.314,0.566,0.528,�k,5.3,��
2023/12/10,20:50,0.518,0.786,0.487,0.983,0.704,0.315,0.564,0.527,�k,6.7,��
2023/12/10,21:00,0.518,0.787,0.488,0.984,0.705,0.313,0.564,0.527,�k�k��,7.1,��
2023/12/10,21:10,0.517,0.785,0.486,0.983,0.704,0.315,0.564,0.528,�k,6.3,��
2023/12/10,21:20,0.518,0.784,0.488,0.985,0.705,0.313,0.564,0.527,�k�k��,5.6,��
2023/12/10,21:30,0.516,0.786,0.486,0.983,0.706,0.314,0.563,0.527,�k�k��,5.8,��
2023/12/10,21:40,0.516,0.784,0.487,0.984,0.703,0.313,0.564,0.528,�k,6.5,��
2023/12/10,21:50,0.517,0.785,0.487,0.985,0.703,0.314,0.565,0.526,�k,5.8,��
2023/12/10,22:00,0.517,0.785,0.487,0.982,0.702,0.314,0.564,0.526,�k�k��,4.6,��
2023/12/10,22:10,0.516,0.784,0.486,0.984,0.704,0.313,0.565,0.526,�k,5.0,��
2023/12/10,22:20,0.516,0.784,0.487,0.986,0.703,0.315,0.565,0.527,�k�k��,4.5,��
2023/12/10,22:30,0.516,0.784,0.487,0.984,0.706,0.315,0.565,0.526,�k,4.2,��
2023/12/10,22:40,0.516,0.786,0.489,0.984,0.704,0.314,0.566,0.527,�k,3.8,��
2023/12/10,22:50,0.515,0.784,0.487,0.984,0.704,0.314,0.565,0.526,�k�k��,3.1,��
2023/12/10,23:00,0.517,0.783,0.485,0.984,0.703,0.314,0.565,0.525,�k,3.2,��
2023/12/10,23:10,0.515,0.786,0.487,0.982,0.704,0.314,0.565,0.524,�k�k��,3.1,��
2023/12/10,23:20,0.517,0.785,0.486,0.984,0.705,0.313,0.565,0.525,�k�k��,3.0,��
2023/12/10,23:30,0.517,0.783,0.486,0.982,0.705,0.314,0.565,0.527,�k,2.3,��
2023/12/10,23:40,0.516,0.785,0.486,0.984,0.704,0.314,0.564,0.528,�k��,2.3,��
2023/12/10,23:50,0.515,0.785,0.487,0.981,0.705,0.313,0.565,0.526,�k�k��,2.8,��
